Time,TemperatureF,DewpointF,PressureIn,WindDirection,WindDirectionDegrees,WindSpeedMPH,WindSpeedGustMPH,Humidity,HourlyPrecipIn,Conditions,Clouds,dailyrainin,SoftwareType,DateUTC
2013-08-03 00:00:00,63.4,48.4,29.83,WSW,248,0.0,0.0,58,0.00,,,0.00,WeatherCatV1.15B25,2013-08-03 07:00:00,
2013-08-03 00:05:00,63.4,48.4,29.83,WSW,248,0.0,0.0,58,0.00,,,0.00,WeatherCatV1.15B25,2013-08-03 07:05:00,
2013-08-03 00:10:00,63.4,48.4,29.83,WSW,248,0.0,0.0,58,0.00,,,0.00,WeatherCatV1.15B25,2013-08-03 07:10:00,
2013-08-03 00:15:00,63.4,48.4,29.83,WSW,248,0.0,0.0,58,0.00,,,0.00,WeatherCatV1.15B25,2013-08-03 07:15:00,
2013-08-03 00:20:00,63.4,48.4,29.83,WSW,248,0.0,0.0,58,0.00,,,0.00,WeatherCatV1.15B25,2013-08-03 07:20:00,
2013-08-03 00:25:00,63.4,48.4,29.83,WSW,248,0.0,0.0,58,0.00,,,0.00,WeatherCatV1.15B25,2013-08-03 07:25:00,
2013-08-03 00:30:00,63.4,48.4,29.83,WSW,248,0.0,0.0,58,0.00,,,0.00,WeatherCatV1.15B25,2013-08-03 07:30:00,
2013-08-03 00:35:00,63.4,48.4,29.83,WSW,248,0.0,0.0,58,0.00,,,0.00,WeatherCatV1.15B25,2013-08-03 07:35:00,
2013-08-03 00:40:00,62.2,47.7,29.84,WSW,248,0.0,0.0,59,0.00,,,0.00,WeatherCatV1.15B25,2013-08-03 07:40:00,
2013-08-03 00:45:00,62.2,47.7,29.84,WSW,248,0.0,0.0,59,0.00,,,0.00,WeatherCatV1.15B25,2013-08-03 07:45:00,
2013-08-03 00:50:00,62.2,47.7,29.84,WSW,248,0.0,0.0,59,0.00,,,0.00,WeatherCatV1.15B25,2013-08-03 07:50:00,
2013-08-03 00:55:00,62.2,47.7,29.84,WSW,248,0.0,0.0,59,0.00,,,0.00,WeatherCatV1.15B25,2013-08-03 07:55:00,
2013-08-03 01:00:00,62.2,47.7,29.84,WSW,248,0.0,0.0,59,0.00,,,0.00,WeatherCatV1.15B25,2013-08-03 08:00:00,
2013-08-03 01:05:00,62.2,47.7,29.84,WSW,248,0.0,0.0,59,0.00,,,0.00,WeatherCatV1.15B25,2013-08-03 08:05:00,
2013-08-03 01:10:00,62.2,47.7,29.84,WSW,248,0.0,0.0,59,0.00,,,0.00,WeatherCatV1.15B25,2013-08-03 08:10:00,
2013-08-03 01:15:00,62.2,47.7,29.84,WSW,248,0.0,0.0,59,0.00,,,0.00,WeatherCatV1.15B25,2013-08-03 08:15:00,
2013-08-03 01:20:00,62.2,47.7,29.84,WSW,248,0.0,0.0,59,0.00,,,0.00,WeatherCatV1.15B25,2013-08-03 08:20:00,
2013-08-03 01:25:00,62.2,47.7,29.84,WSW,248,0.0,0.0,59,0.00,,,0.00,WeatherCatV1.15B25,2013-08-03 08:25:00,
2013-08-03 01:30:00,62.2,47.7,29.84,WSW,248,0.0,0.0,59,0.00,,,0.00,WeatherCatV1.15B25,2013-08-03 08:30:00,
2013-08-03 01:35:00,62.2,47.7,29.84,WSW,248,0.0,0.0,59,0.00,,,0.00,WeatherCatV1.15B25,2013-08-03 08:35:00,
2013-08-03 01:40:00,61.2,47.2,29.85,WSW,248,0.0,1.0,60,0.00,,,0.00,WeatherCatV1.15B25,2013-08-03 08:40:00,
2013-08-03 01:45:00,61.2,47.2,29.85,WSW,248,0.0,1.0,60,0.00,,,0.00,WeatherCatV1.15B25,2013-08-03 08:45:00,
2013-08-03 01:50:00,61.2,47.2,29.85,WSW,248,0.0,1.0,60,0.00,,,0.00,WeatherCatV1.15B25,2013-08-03 08:50:00,
2013-08-03 01:55:00,61.2,47.2,29.85,WSW,248,0.0,1.0,60,0.00,,,0.00,WeatherCatV1.15B25,2013-08-03 08:55:00,
2013-08-03 02:00:00,61.2,47.2,29.85,WSW,248,0.0,1.0,60,0.00,,,0.00,WeatherCatV1.15B25,2013-08-03 09:00:00,
2013-08-03 02:05:00,61.2,47.2,29.85,WSW,248,0.0,1.0,60,0.00,,,0.00,WeatherCatV1.15B25,2013-08-03 09:05:00,
2013-08-03 02:10:00,61.2,47.2,29.85,WSW,248,0.0,1.0,60,0.00,,,0.00,WeatherCatV1.15B25,2013-08-03 09:10:00,
2013-08-03 02:15:00,61.2,47.2,29.85,WSW,248,0.0,1.0,60,0.00,,,0.00,WeatherCatV1.15B25,2013-08-03 09:15:00,
2013-08-03 02:20:00,61.2,47.2,29.85,WSW,248,0.0,1.0,60,0.00,,,0.00,WeatherCatV1.15B25,2013-08-03 09:20:00,
2013-08-03 02:25:00,61.2,47.2,29.85,WSW,248,0.0,1.0,60,0.00,,,0.00,WeatherCatV1.15B25,2013-08-03 09:25:00,
2013-08-03 02:30:00,61.2,47.2,29.85,WSW,248,0.0,1.0,60,0.00,,,0.00,WeatherCatV1.15B25,2013-08-03 09:30:00,
2013-08-03 02:35:00,61.2,47.2,29.85,WSW,248,0.0,1.0,60,0.00,,,0.00,WeatherCatV1.15B25,2013-08-03 09:35:00,
2013-08-03 02:40:00,60.5,46.1,29.84,WSW,248,0.0,0.0,59,0.00,,,0.00,WeatherCatV1.15B25,2013-08-03 09:40:00,
2013-08-03 02:45:00,60.5,46.1,29.84,WSW,248,0.0,0.0,59,0.00,,,0.00,WeatherCatV1.15B25,2013-08-03 09:45:00,
2013-08-03 02:50:00,60.5,46.1,29.84,WSW,248,0.0,0.0,59,0.00,,,0.00,WeatherCatV1.15B25,2013-08-03 09:50:00,
2013-08-03 02:55:00,60.5,46.1,29.84,WSW,248,0.0,0.0,59,0.00,,,0.00,WeatherCatV1.15B25,2013-08-03 09:55:00,
2013-08-03 03:00:00,60.5,46.1,29.84,WSW,248,0.0,0.0,59,0.00,,,0.00,WeatherCatV1.15B25,2013-08-03 10:00:00,
2013-08-03 03:05:00,60.5,46.1,29.84,WSW,248,0.0,0.0,59,0.00,,,0.00,WeatherCatV1.15B25,2013-08-03 10:05:00,
2013-08-03 03:10:00,60.5,46.1,29.84,WSW,248,0.0,0.0,59,0.00,,,0.00,WeatherCatV1.15B25,2013-08-03 10:10:00,
2013-08-03 03:15:00,60.5,46.1,29.84,WSW,248,0.0,0.0,59,0.00,,,0.00,WeatherCatV1.15B25,2013-08-03 10:15:00,
2013-08-03 03:20:00,60.5,46.1,29.84,WSW,248,0.0,0.0,59,0.00,,,0.00,WeatherCatV1.15B25,2013-08-03 10:20:00,
2013-08-03 03:25:00,60.5,46.1,29.84,WSW,248,0.0,0.0,59,0.00,,,0.00,WeatherCatV1.15B25,2013-08-03 10:25:00,
2013-08-03 03:30:00,60.5,46.1,29.84,WSW,248,0.0,0.0,59,0.00,,,0.00,WeatherCatV1.15B25,2013-08-03 10:30:00,
2013-08-03 03:35:00,60.5,46.1,29.84,WSW,248,0.0,0.0,59,0.00,,,0.00,WeatherCatV1.15B25,2013-08-03 10:35:00,
2013-08-03 03:40:00,58.7,46.1,29.84,WSW,248,0.0,1.0,63,0.00,,,0.00,WeatherCatV1.15B25,2013-08-03 10:40:00,
2013-08-03 03:45:00,58.7,46.1,29.84,WSW,248,0.0,1.0,63,0.00,,,0.00,WeatherCatV1.15B25,2013-08-03 10:45:00,
2013-08-03 03:50:00,58.7,46.1,29.84,WSW,248,0.0,1.0,63,0.00,,,0.00,WeatherCatV1.15B25,2013-08-03 10:50:00,
2013-08-03 03:55:00,58.7,46.1,29.84,WSW,248,0.0,1.0,63,0.00,,,0.00,WeatherCatV1.15B25,2013-08-03 10:55:00,
2013-08-03 04:00:00,58.7,46.1,29.84,WSW,248,0.0,1.0,63,0.00,,,0.00,WeatherCatV1.15B25,2013-08-03 11:00:00,
2013-08-03 04:05:00,58.7,46.1,29.84,WSW,248,0.0,1.0,63,0.00,,,0.00,WeatherCatV1.15B25,2013-08-03 11:05:00,
2013-08-03 04:10:00,58.7,46.1,29.84,WSW,248,0.0,1.0,63,0.00,,,0.00,WeatherCatV1.15B25,2013-08-03 11:10:00,
2013-08-03 04:15:00,58.7,46.1,29.84,WSW,248,0.0,1.0,63,0.00,,,0.00,WeatherCatV1.15B25,2013-08-03 11:15:00,
2013-08-03 04:20:00,58.7,46.1,29.84,WSW,248,0.0,1.0,63,0.00,,,0.00,WeatherCatV1.15B25,2013-08-03 11:20:00,
2013-08-03 04:25:00,58.7,46.1,29.84,WSW,248,0.0,1.0,63,0.00,,,0.00,WeatherCatV1.15B25,2013-08-03 11:25:00,
2013-08-03 04:30:00,58.7,46.1,29.84,WSW,248,0.0,1.0,63,0.00,,,0.00,WeatherCatV1.15B25,2013-08-03 11:30:00,
2013-08-03 04:35:00,58.7,46.1,29.84,WSW,248,0.0,1.0,63,0.00,,,0.00,WeatherCatV1.15B25,2013-08-03 11:35:00,
2013-08-03 04:40:00,58.0,45.5,29.84,West,270,0.0,1.0,63,0.00,,,0.00,WeatherCatV1.15B25,2013-08-03 11:40:00,
2013-08-03 04:45:00,58.0,45.5,29.84,West,270,0.0,1.0,63,0.00,,,0.00,WeatherCatV1.15B25,2013-08-03 11:45:00,
2013-08-03 04:50:00,58.0,45.5,29.84,West,270,0.0,1.0,63,0.00,,,0.00,WeatherCatV1.15B25,2013-08-03 11:50:00,
2013-08-03 04:55:00,58.0,45.5,29.84,West,270,0.0,1.0,63,0.00,,,0.00,WeatherCatV1.15B25,2013-08-03 11:55:00,
2013-08-03 05:00:00,58.0,45.5,29.84,West,270,0.0,1.0,63,0.00,,,0.00,WeatherCatV1.15B25,2013-08-03 12:00:00,
2013-08-03 05:05:00,58.0,45.5,29.84,West,270,0.0,1.0,63,0.00,,,0.00,WeatherCatV1.15B25,2013-08-03 12:05:00,
2013-08-03 05:10:00,58.0,45.5,29.84,West,270,0.0,1.0,63,0.00,,,0.00,WeatherCatV1.15B25,2013-08-03 12:10:00,
2013-08-03 05:15:00,58.0,45.5,29.84,West,270,0.0,1.0,63,0.00,,,0.00,WeatherCatV1.15B25,2013-08-03 12:15:00,
2013-08-03 05:20:00,58.0,45.5,29.84,West,270,0.0,1.0,63,0.00,,,0.00,WeatherCatV1.15B25,2013-08-03 12:20:00,
2013-08-03 05:25:00,58.0,45.5,29.84,West,270,0.0,1.0,63,0.00,,,0.00,WeatherCatV1.15B25,2013-08-03 12:25:00,
2013-08-03 05:30:00,58.0,45.5,29.84,West,270,0.0,1.0,63,0.00,,,0.00,WeatherCatV1.15B25,2013-08-03 12:30:00,
2013-08-03 05:35:00,58.0,45.5,29.84,West,270,0.0,1.0,63,0.00,,,0.00,WeatherCatV1.15B25,2013-08-03 12:35:00,
2013-08-03 05:40:00,57.8,45.3,29.84,West,270,0.0,0.0,63,0.00,,,0.00,WeatherCatV1.15B25,2013-08-03 12:40:00,
2013-08-03 05:45:00,57.8,45.3,29.84,West,270,0.0,0.0,63,0.00,,,0.00,WeatherCatV1.15B25,2013-08-03 12:45:00,
2013-08-03 05:50:00,57.8,45.3,29.84,West,270,0.0,0.0,63,0.00,,,0.00,WeatherCatV1.15B25,2013-08-03 12:50:00,
2013-08-03 05:55:00,57.8,45.3,29.84,West,270,0.0,0.0,63,0.00,,,0.00,WeatherCatV1.15B25,2013-08-03 12:55:00,
2013-08-03 06:00:00,57.8,45.3,29.84,West,270,0.0,0.0,63,0.00,,,0.00,WeatherCatV1.15B25,2013-08-03 13:00:00,
2013-08-03 06:05:00,57.8,45.3,29.84,West,270,0.0,0.0,63,0.00,,,0.00,WeatherCatV1.15B25,2013-08-03 13:05:00,
2013-08-03 06:10:00,57.8,45.3,29.84,West,270,0.0,0.0,63,0.00,,,0.00,WeatherCatV1.15B25,2013-08-03 13:10:00,
2013-08-03 06:15:00,57.8,45.3,29.84,West,270,0.0,0.0,63,0.00,,,0.00,WeatherCatV1.15B25,2013-08-03 13:15:00,
2013-08-03 06:20:00,57.8,45.3,29.84,West,270,0.0,0.0,63,0.00,,,0.00,WeatherCatV1.15B25,2013-08-03 13:20:00,
2013-08-03 06:25:00,57.8,45.3,29.84,West,270,0.0,0.0,63,0.00,,,0.00,WeatherCatV1.15B25,2013-08-03 13:25:00,
2013-08-03 06:30:00,57.8,45.3,29.84,West,270,0.0,0.0,63,0.00,,,0.00,WeatherCatV1.15B25,2013-08-03 13:30:00,
2013-08-03 06:35:00,57.8,45.3,29.84,West,270,0.0,0.0,63,0.00,,,0.00,WeatherCatV1.15B25,2013-08-03 13:35:00,
2013-08-03 06:40:00,57.2,43.0,29.85,West,270,0.0,0.0,59,0.00,,,0.00,WeatherCatV1.15B25,2013-08-03 13:40:00,
2013-08-03 06:45:00,57.2,43.0,29.85,West,270,0.0,0.0,59,0.00,,,0.00,WeatherCatV1.15B25,2013-08-03 13:45:00,
2013-08-03 06:50:00,57.2,43.0,29.85,West,270,0.0,0.0,59,0.00,,,0.00,WeatherCatV1.15B25,2013-08-03 13:50:00,
2013-08-03 06:55:00,57.2,43.0,29.85,West,270,0.0,0.0,59,0.00,,,0.00,WeatherCatV1.15B25,2013-08-03 13:55:00,
2013-08-03 07:00:00,57.2,43.0,29.85,West,270,0.0,0.0,59,0.00,,,0.00,WeatherCatV1.15B25,2013-08-03 14:00:00,
2013-08-03 07:05:00,57.2,43.0,29.85,West,270,0.0,0.0,59,0.00,,,0.00,WeatherCatV1.15B25,2013-08-03 14:05:00,
2013-08-03 07:10:00,57.2,43.0,29.85,West,270,0.0,0.0,59,0.00,,,0.00,WeatherCatV1.15B25,2013-08-03 14:10:00,
2013-08-03 07:15:00,57.2,43.0,29.85,West,270,0.0,0.0,59,0.00,,,0.00,WeatherCatV1.15B25,2013-08-03 14:15:00,
2013-08-03 07:20:00,57.2,43.0,29.85,West,270,0.0,0.0,59,0.00,,,0.00,WeatherCatV1.15B25,2013-08-03 14:20:00,
2013-08-03 07:25:00,57.2,43.0,29.85,West,270,0.0,0.0,59,0.00,,,0.00,WeatherCatV1.15B25,2013-08-03 14:25:00,
2013-08-03 07:30:00,57.2,43.0,29.85,West,270,0.0,0.0,59,0.00,,,0.00,WeatherCatV1.15B25,2013-08-03 14:30:00,
2013-08-03 07:35:00,57.2,43.0,29.85,West,270,0.0,0.0,59,0.00,,,0.00,WeatherCatV1.15B25,2013-08-03 14:35:00,
2013-08-03 07:40:00,57.0,44.9,29.86,NNW,338,0.0,1.0,64,0.00,,,0.00,WeatherCatV1.15B25,2013-08-03 14:40:00,
2013-08-03 07:45:00,57.0,44.9,29.86,NNW,338,0.0,1.0,64,0.00,,,0.00,WeatherCatV1.15B25,2013-08-03 14:45:00,
2013-08-03 07:50:00,57.0,44.9,29.86,NNW,338,0.0,1.0,64,0.00,,,0.00,WeatherCatV1.15B25,2013-08-03 14:50:00,
2013-08-03 07:55:00,57.0,44.9,29.86,NNW,338,0.0,1.0,64,0.00,,,0.00,WeatherCatV1.15B25,2013-08-03 14:55:00,
2013-08-03 08:00:00,57.0,44.9,29.86,NNW,338,0.0,1.0,64,0.00,,,0.00,WeatherCatV1.15B25,2013-08-03 15:00:00,
2013-08-03 08:05:00,57.0,44.9,29.86,NNW,338,0.0,1.0,64,0.00,,,0.00,WeatherCatV1.15B25,2013-08-03 15:05:00,
2013-08-03 08:10:00,57.0,44.9,29.86,NNW,338,0.0,1.0,64,0.00,,,0.00,WeatherCatV1.15B25,2013-08-03 15:10:00,
2013-08-03 08:15:00,57.0,44.9,29.86,NNW,338,0.0,1.0,64,0.00,,,0.00,WeatherCatV1.15B25,2013-08-03 15:15:00,
2013-08-03 08:20:00,57.0,44.9,29.86,NNW,338,0.0,1.0,64,0.00,,,0.00,WeatherCatV1.15B25,2013-08-03 15:20:00,
2013-08-03 08:25:00,57.0,44.9,29.86,NNW,338,0.0,1.0,64,0.00,,,0.00,WeatherCatV1.15B25,2013-08-03 15:25:00,
2013-08-03 08:30:00,57.0,44.9,29.86,NNW,338,0.0,1.0,64,0.00,,,0.00,WeatherCatV1.15B25,2013-08-03 15:30:00,
2013-08-03 08:35:00,57.0,44.9,29.86,NNW,338,0.0,1.0,64,0.00,,,0.00,WeatherCatV1.15B25,2013-08-03 15:35:00,
2013-08-03 08:40:00,61.4,46.9,29.87,NNW,338,0.0,1.0,59,0.00,,,0.00,WeatherCatV1.15B25,2013-08-03 15:40:00,
2013-08-03 08:45:00,61.4,46.9,29.87,NNW,338,0.0,1.0,59,0.00,,,0.00,WeatherCatV1.15B25,2013-08-03 15:45:00,
2013-08-03 08:50:00,61.4,46.9,29.87,NNW,338,0.0,1.0,59,0.00,,,0.00,WeatherCatV1.15B25,2013-08-03 15:50:00,
2013-08-03 08:55:00,61.4,46.9,29.87,NNW,338,0.0,1.0,59,0.00,,,0.00,WeatherCatV1.15B25,2013-08-03 15:55:00,
2013-08-03 09:00:00,61.4,46.9,29.87,NNW,338,0.0,1.0,59,0.00,,,0.00,WeatherCatV1.15B25,2013-08-03 16:00:00,
2013-08-03 09:05:00,61.4,46.9,29.87,NNW,338,0.0,1.0,59,0.00,,,0.00,WeatherCatV1.15B25,2013-08-03 16:05:00,
2013-08-03 09:10:00,61.4,46.9,29.87,NNW,338,0.0,1.0,59,0.00,,,0.00,WeatherCatV1.15B25,2013-08-03 16:10:00,
2013-08-03 09:15:00,61.4,46.9,29.87,NNW,338,0.0,1.0,59,0.00,,,0.00,WeatherCatV1.15B25,2013-08-03 16:15:00,
2013-08-03 09:20:00,61.4,46.9,29.87,NNW,338,0.0,1.0,59,0.00,,,0.00,WeatherCatV1.15B25,2013-08-03 16:20:00,
2013-08-03 09:25:00,61.4,46.9,29.87,NNW,338,0.0,1.0,59,0.00,,,0.00,WeatherCatV1.15B25,2013-08-03 16:25:00,
2013-08-03 09:30:00,61.4,46.9,29.87,NNW,338,0.0,1.0,59,0.00,,,0.00,WeatherCatV1.15B25,2013-08-03 16:30:00,
2013-08-03 09:35:00,61.4,46.9,29.87,NNW,338,0.0,1.0,59,0.00,,,0.00,WeatherCatV1.15B25,2013-08-03 16:35:00,
2013-08-03 09:40:00,68.4,50.1,29.88,NNW,338,0.0,1.0,52,0.00,,,0.00,WeatherCatV1.15B25,2013-08-03 16:40:00,
2013-08-03 09:45:00,68.4,50.1,29.88,NNW,338,0.0,1.0,52,0.00,,,0.00,WeatherCatV1.15B25,2013-08-03 16:45:00,
2013-08-03 09:50:00,68.4,50.1,29.88,NNW,338,0.0,1.0,52,0.00,,,0.00,WeatherCatV1.15B25,2013-08-03 16:50:00,
2013-08-03 09:55:00,68.4,50.1,29.88,NNW,338,0.0,1.0,52,0.00,,,0.00,WeatherCatV1.15B25,2013-08-03 16:55:00,
2013-08-03 10:00:00,68.4,50.1,29.88,NNW,338,0.0,1.0,52,0.00,,,0.00,WeatherCatV1.15B25,2013-08-03 17:00:00,
2013-08-03 10:05:00,68.4,50.1,29.88,NNW,338,0.0,1.0,52,0.00,,,0.00,WeatherCatV1.15B25,2013-08-03 17:05:00,
2013-08-03 10:10:00,68.4,50.1,29.88,NNW,338,0.0,1.0,52,0.00,,,0.00,WeatherCatV1.15B25,2013-08-03 17:10:00,
2013-08-03 10:15:00,68.4,50.1,29.88,NNW,338,0.0,1.0,52,0.00,,,0.00,WeatherCatV1.15B25,2013-08-03 17:15:00,
2013-08-03 10:20:00,68.4,50.1,29.88,NNW,338,0.0,1.0,52,0.00,,,0.00,WeatherCatV1.15B25,2013-08-03 17:20:00,
2013-08-03 10:25:00,68.4,50.1,29.88,NNW,338,0.0,1.0,52,0.00,,,0.00,WeatherCatV1.15B25,2013-08-03 17:25:00,
2013-08-03 10:30:00,68.4,50.1,29.88,NNW,338,0.0,1.0,52,0.00,,,0.00,WeatherCatV1.15B25,2013-08-03 17:30:00,
2013-08-03 10:35:00,68.4,50.1,29.88,NNW,338,0.0,1.0,52,0.00,,,0.00,WeatherCatV1.15B25,2013-08-03 17:35:00,
2013-08-03 10:40:00,73.4,44.1,29.87,NNW,338,0.0,1.0,35,0.00,,,0.00,WeatherCatV1.15B25,2013-08-03 17:40:00,
2013-08-03 10:45:00,73.4,44.1,29.87,NNW,338,0.0,1.0,35,0.00,,,0.00,WeatherCatV1.15B25,2013-08-03 17:45:00,
2013-08-03 10:50:00,73.4,44.1,29.87,NNW,338,0.0,1.0,35,0.00,,,0.00,WeatherCatV1.15B25,2013-08-03 17:50:00,
2013-08-03 10:55:00,73.4,44.1,29.87,NNW,338,0.0,1.0,35,0.00,,,0.00,WeatherCatV1.15B25,2013-08-03 17:55:00,
2013-08-03 11:00:00,73.4,44.1,29.87,NNW,338,0.0,1.0,35,0.00,,,0.00,WeatherCatV1.15B25,2013-08-03 18:00:00,
2013-08-03 11:05:00,73.4,44.1,29.87,NNW,338,0.0,1.0,35,0.00,,,0.00,WeatherCatV1.15B25,2013-08-03 18:05:00,
2013-08-03 11:10:00,73.4,44.1,29.87,NNW,338,0.0,1.0,35,0.00,,,0.00,WeatherCatV1.15B25,2013-08-03 18:10:00,
2013-08-03 11:15:00,73.4,44.1,29.87,NNW,338,0.0,1.0,35,0.00,,,0.00,WeatherCatV1.15B25,2013-08-03 18:15:00,
2013-08-03 11:20:00,73.4,44.1,29.87,NNW,338,0.0,1.0,35,0.00,,,0.00,WeatherCatV1.15B25,2013-08-03 18:20:00,
2013-08-03 11:25:00,73.4,44.1,29.87,NNW,338,0.0,1.0,35,0.00,,,0.00,WeatherCatV1.15B25,2013-08-03 18:25:00,
2013-08-03 11:30:00,73.4,44.1,29.87,NNW,338,0.0,1.0,35,0.00,,,0.00,WeatherCatV1.15B25,2013-08-03 18:30:00,
2013-08-03 11:35:00,73.4,44.1,29.87,NNW,338,0.0,1.0,35,0.00,,,0.00,WeatherCatV1.15B25,2013-08-03 18:35:00,
2013-08-03 11:40:00,81.2,45.0,29.87,West,270,0.0,3.0,28,0.00,,,0.00,WeatherCatV1.15B25,2013-08-03 18:40:00,
2013-08-03 11:45:00,81.2,45.0,29.87,West,270,0.0,3.0,28,0.00,,,0.00,WeatherCatV1.15B25,2013-08-03 18:45:00,
2013-08-03 11:50:00,81.2,45.0,29.87,West,270,0.0,3.0,28,0.00,,,0.00,WeatherCatV1.15B25,2013-08-03 18:50:00,
2013-08-03 11:55:00,81.2,45.0,29.87,West,270,0.0,3.0,28,0.00,,,0.00,WeatherCatV1.15B25,2013-08-03 18:55:00,
2013-08-03 12:00:00,81.2,45.0,29.87,West,270,0.0,3.0,28,0.00,,,0.00,WeatherCatV1.15B25,2013-08-03 19:00:00,
2013-08-03 12:05:00,81.2,45.0,29.87,West,270,0.0,3.0,28,0.00,,,0.00,WeatherCatV1.15B25,2013-08-03 19:05:00,
2013-08-03 12:10:00,81.2,45.0,29.87,West,270,0.0,3.0,28,0.00,,,0.00,WeatherCatV1.15B25,2013-08-03 19:10:00,
2013-08-03 12:15:00,81.2,45.0,29.87,West,270,0.0,3.0,28,0.00,,,0.00,WeatherCatV1.15B25,2013-08-03 19:15:00,
2013-08-03 12:20:00,81.2,45.0,29.87,West,270,0.0,3.0,28,0.00,,,0.00,WeatherCatV1.15B25,2013-08-03 19:20:00,
2013-08-03 12:25:00,81.2,45.0,29.87,West,270,0.0,3.0,28,0.00,,,0.00,WeatherCatV1.15B25,2013-08-03 19:25:00,
2013-08-03 12:30:00,81.2,45.0,29.87,West,270,0.0,3.0,28,0.00,,,0.00,WeatherCatV1.15B25,2013-08-03 19:30:00,
2013-08-03 12:35:00,81.2,45.0,29.87,West,270,0.0,3.0,28,0.00,,,0.00,WeatherCatV1.15B25,2013-08-03 19:35:00,
2013-08-03 12:40:00,85.2,47.4,29.86,West,270,1.0,4.0,27,0.00,,,0.00,WeatherCatV1.15B25,2013-08-03 19:40:00,
2013-08-03 12:45:00,85.2,47.4,29.86,West,270,1.0,4.0,27,0.00,,,0.00,WeatherCatV1.15B25,2013-08-03 19:45:00,
2013-08-03 12:50:00,85.2,47.4,29.86,West,270,1.0,4.0,27,0.00,,,0.00,WeatherCatV1.15B25,2013-08-03 19:50:00,
2013-08-03 12:55:00,85.2,47.4,29.86,West,270,1.0,4.0,27,0.00,,,0.00,WeatherCatV1.15B25,2013-08-03 19:55:00,
2013-08-03 13:00:00,85.2,47.4,29.86,West,270,1.0,4.0,27,0.00,,,0.00,WeatherCatV1.15B25,2013-08-03 20:00:00,
2013-08-03 13:05:00,85.2,47.4,29.86,West,270,1.0,4.0,27,0.00,,,0.00,WeatherCatV1.15B25,2013-08-03 20:05:00,
2013-08-03 13:10:00,85.2,47.4,29.86,West,270,1.0,4.0,27,0.00,,,0.00,WeatherCatV1.15B25,2013-08-03 20:10:00,
2013-08-03 13:15:00,85.2,47.4,29.86,West,270,1.0,4.0,27,0.00,,,0.00,WeatherCatV1.15B25,2013-08-03 20:15:00,
2013-08-03 13:20:00,85.2,47.4,29.86,West,270,1.0,4.0,27,0.00,,,0.00,WeatherCatV1.15B25,2013-08-03 20:20:00,
2013-08-03 13:25:00,85.2,47.4,29.86,West,270,1.0,4.0,27,0.00,,,0.00,WeatherCatV1.15B25,2013-08-03 20:25:00,
2013-08-03 13:30:00,85.2,47.4,29.86,West,270,1.0,4.0,27,0.00,,,0.00,WeatherCatV1.15B25,2013-08-03 20:30:00,
2013-08-03 13:35:00,85.2,47.4,29.86,West,270,1.0,4.0,27,0.00,,,0.00,WeatherCatV1.15B25,2013-08-03 20:35:00,
2013-08-03 13:40:00,86.3,41.7,29.85,West,270,2.0,6.0,21,0.00,,,0.00,WeatherCatV1.15B25,2013-08-03 20:40:00,
2013-08-03 13:45:00,86.3,41.7,29.85,West,270,2.0,6.0,21,0.00,,,0.00,WeatherCatV1.15B25,2013-08-03 20:45:00,
2013-08-03 13:50:00,86.3,41.7,29.85,West,270,2.0,6.0,21,0.00,,,0.00,WeatherCatV1.15B25,2013-08-03 20:50:00,
2013-08-03 13:55:00,86.3,41.7,29.85,West,270,2.0,6.0,21,0.00,,,0.00,WeatherCatV1.15B25,2013-08-03 20:55:00,
2013-08-03 14:00:00,86.3,41.7,29.85,West,270,2.0,6.0,21,0.00,,,0.00,WeatherCatV1.15B25,2013-08-03 21:00:00,
2013-08-03 14:05:00,86.3,41.7,29.85,West,270,2.0,6.0,21,0.00,,,0.00,WeatherCatV1.15B25,2013-08-03 21:05:00,
2013-08-03 14:10:00,86.3,41.7,29.85,West,270,2.0,6.0,21,0.00,,,0.00,WeatherCatV1.15B25,2013-08-03 21:10:00,
2013-08-03 14:15:00,86.3,41.7,29.85,West,270,2.0,6.0,21,0.00,,,0.00,WeatherCatV1.15B25,2013-08-03 21:15:00,
2013-08-03 14:20:00,86.3,41.7,29.85,West,270,2.0,6.0,21,0.00,,,0.00,WeatherCatV1.15B25,2013-08-03 21:20:00,
2013-08-03 14:25:00,86.3,41.7,29.85,West,270,2.0,6.0,21,0.00,,,0.00,WeatherCatV1.15B25,2013-08-03 21:25:00,
2013-08-03 14:30:00,86.3,41.7,29.85,West,270,2.0,6.0,21,0.00,,,0.00,WeatherCatV1.15B25,2013-08-03 21:30:00,
2013-08-03 14:35:00,86.3,41.7,29.85,West,270,2.0,6.0,21,0.00,,,0.00,WeatherCatV1.15B25,2013-08-03 21:35:00,
2013-08-03 14:40:00,86.7,40.8,29.85,West,270,2.0,5.0,20,0.00,,,0.00,WeatherCatV1.15B25,2013-08-03 21:40:00,
2013-08-03 14:45:00,86.7,40.8,29.85,West,270,2.0,5.0,20,0.00,,,0.00,WeatherCatV1.15B25,2013-08-03 21:45:00,
2013-08-03 14:50:00,86.7,40.8,29.85,West,270,2.0,5.0,20,0.00,,,0.00,WeatherCatV1.15B25,2013-08-03 21:50:00,
2013-08-03 14:55:00,86.7,40.8,29.85,West,270,2.0,5.0,20,0.00,,,0.00,WeatherCatV1.15B25,2013-08-03 21:55:00,
2013-08-03 15:00:00,86.7,40.8,29.85,West,270,2.0,5.0,20,0.00,,,0.00,WeatherCatV1.15B25,2013-08-03 22:00:00,
2013-08-03 15:05:00,86.7,40.8,29.85,West,270,2.0,5.0,20,0.00,,,0.00,WeatherCatV1.15B25,2013-08-03 22:05:00,
2013-08-03 15:10:00,86.7,40.8,29.85,West,270,2.0,5.0,20,0.00,,,0.00,WeatherCatV1.15B25,2013-08-03 22:10:00,
2013-08-03 15:15:00,86.7,40.8,29.85,West,270,2.0,5.0,20,0.00,,,0.00,WeatherCatV1.15B25,2013-08-03 22:15:00,
2013-08-03 15:20:00,86.7,40.8,29.85,West,270,2.0,5.0,20,0.00,,,0.00,WeatherCatV1.15B25,2013-08-03 22:20:00,
2013-08-03 15:25:00,86.7,40.8,29.85,West,270,2.0,5.0,20,0.00,,,0.00,WeatherCatV1.15B25,2013-08-03 22:25:00,
2013-08-03 15:30:00,86.7,40.8,29.85,West,270,2.0,5.0,20,0.00,,,0.00,WeatherCatV1.15B25,2013-08-03 22:30:00,
2013-08-03 15:35:00,86.7,40.8,29.85,West,270,2.0,5.0,20,0.00,,,0.00,WeatherCatV1.15B25,2013-08-03 22:35:00,
2013-08-03 15:40:00,85.9,40.2,29.85,West,270,2.0,6.0,20,0.00,,,0.00,WeatherCatV1.15B25,2013-08-03 22:40:00,
2013-08-03 15:45:00,85.9,40.2,29.85,West,270,2.0,6.0,20,0.00,,,0.00,WeatherCatV1.15B25,2013-08-03 22:45:00,
2013-08-03 15:50:00,85.9,40.2,29.85,West,270,2.0,6.0,20,0.00,,,0.00,WeatherCatV1.15B25,2013-08-03 22:50:00,
2013-08-03 15:55:00,85.9,40.2,29.85,West,270,2.0,6.0,20,0.00,,,0.00,WeatherCatV1.15B25,2013-08-03 22:55:00,
2013-08-03 16:00:00,85.9,40.2,29.85,West,270,2.0,6.0,20,0.00,,,0.00,WeatherCatV1.15B25,2013-08-03 23:00:00,
2013-08-03 16:05:00,85.9,40.2,29.85,West,270,2.0,6.0,20,0.00,,,0.00,WeatherCatV1.15B25,2013-08-03 23:05:00,
2013-08-03 16:10:00,85.9,40.2,29.85,West,270,2.0,6.0,20,0.00,,,0.00,WeatherCatV1.15B25,2013-08-03 23:10:00,
2013-08-03 16:15:00,85.9,40.2,29.85,West,270,2.0,6.0,20,0.00,,,0.00,WeatherCatV1.15B25,2013-08-03 23:15:00,
2013-08-03 16:20:00,85.9,40.2,29.85,West,270,2.0,6.0,20,0.00,,,0.00,WeatherCatV1.15B25,2013-08-03 23:20:00,
2013-08-03 16:25:00,85.9,40.2,29.85,West,270,2.0,6.0,20,0.00,,,0.00,WeatherCatV1.15B25,2013-08-03 23:25:00,
2013-08-03 16:30:00,85.9,40.2,29.85,West,270,2.0,6.0,20,0.00,,,0.00,WeatherCatV1.15B25,2013-08-03 23:30:00,
2013-08-03 16:35:00,85.9,40.2,29.85,West,270,2.0,6.0,20,0.00,,,0.00,WeatherCatV1.15B25,2013-08-03 23:35:00,
2013-08-03 16:40:00,86.6,42.0,29.84,West,270,2.0,7.0,21,0.00,,,0.00,WeatherCatV1.15B25,2013-08-03 23:40:00,
2013-08-03 16:45:00,86.6,42.0,29.84,West,270,2.0,7.0,21,0.00,,,0.00,WeatherCatV1.15B25,2013-08-03 23:45:00,
2013-08-03 16:50:00,86.6,42.0,29.84,West,270,2.0,7.0,21,0.00,,,0.00,WeatherCatV1.15B25,2013-08-03 23:50:00,
2013-08-03 16:55:00,86.6,42.0,29.84,West,270,2.0,7.0,21,0.00,,,0.00,WeatherCatV1.15B25,2013-08-03 23:55:00,
2013-08-03 17:00:00,86.6,42.0,29.84,West,270,2.0,7.0,21,0.00,,,0.00,WeatherCatV1.15B25,2013-08-04 00:00:00,
2013-08-03 17:05:00,86.6,42.0,29.84,West,270,2.0,7.0,21,0.00,,,0.00,WeatherCatV1.15B25,2013-08-04 00:05:00,
2013-08-03 17:10:00,86.6,42.0,29.84,West,270,2.0,7.0,21,0.00,,,0.00,WeatherCatV1.15B25,2013-08-04 00:10:00,
2013-08-03 17:15:00,86.6,42.0,29.84,West,270,2.0,7.0,21,0.00,,,0.00,WeatherCatV1.15B25,2013-08-04 00:15:00,
2013-08-03 17:20:00,86.6,42.0,29.84,West,270,2.0,7.0,21,0.00,,,0.00,WeatherCatV1.15B25,2013-08-04 00:20:00,
2013-08-03 17:25:00,86.6,42.0,29.84,West,270,2.0,7.0,21,0.00,,,0.00,WeatherCatV1.15B25,2013-08-04 00:25:00,
2013-08-03 17:30:00,86.6,42.0,29.84,West,270,2.0,7.0,21,0.00,,,0.00,WeatherCatV1.15B25,2013-08-04 00:30:00,
2013-08-03 17:35:00,86.6,42.0,29.84,West,270,2.0,7.0,21,0.00,,,0.00,WeatherCatV1.15B25,2013-08-04 00:35:00,
2013-08-03 17:40:00,85.6,42.4,29.82,West,270,1.0,6.0,22,0.00,,,0.00,WeatherCatV1.15B25,2013-08-04 00:40:00,
2013-08-03 17:45:00,85.6,42.4,29.82,West,270,1.0,6.0,22,0.00,,,0.00,WeatherCatV1.15B25,2013-08-04 00:45:00,
2013-08-03 17:50:00,85.6,42.4,29.82,West,270,1.0,6.0,22,0.00,,,0.00,WeatherCatV1.15B25,2013-08-04 00:50:00,
2013-08-03 17:55:00,85.6,42.4,29.82,West,270,1.0,6.0,22,0.00,,,0.00,WeatherCatV1.15B25,2013-08-04 00:55:00,
2013-08-03 18:00:00,85.6,42.4,29.82,West,270,1.0,6.0,22,0.00,,,0.00,WeatherCatV1.15B25,2013-08-04 01:00:00,
2013-08-03 18:05:00,85.6,42.4,29.82,West,270,1.0,6.0,22,0.00,,,0.00,WeatherCatV1.15B25,2013-08-04 01:05:00,
2013-08-03 18:10:00,85.6,42.4,29.82,West,270,1.0,6.0,22,0.00,,,0.00,WeatherCatV1.15B25,2013-08-04 01:10:00,
2013-08-03 18:15:00,85.6,42.4,29.82,West,270,1.0,6.0,22,0.00,,,0.00,WeatherCatV1.15B25,2013-08-04 01:15:00,
2013-08-03 18:20:00,85.6,42.4,29.82,West,270,1.0,6.0,22,0.00,,,0.00,WeatherCatV1.15B25,2013-08-04 01:20:00,
2013-08-03 18:25:00,85.6,42.4,29.82,West,270,1.0,6.0,22,0.00,,,0.00,WeatherCatV1.15B25,2013-08-04 01:25:00,
2013-08-03 18:30:00,85.6,42.4,29.82,West,270,1.0,6.0,22,0.00,,,0.00,WeatherCatV1.15B25,2013-08-04 01:30:00,
2013-08-03 18:35:00,85.6,42.4,29.82,West,270,1.0,6.0,22,0.00,,,0.00,WeatherCatV1.15B25,2013-08-04 01:35:00,
2013-08-03 18:40:00,84.6,44.9,29.81,West,270,1.0,5.0,25,0.00,,,0.00,WeatherCatV1.15B25,2013-08-04 01:40:00,
2013-08-03 18:45:00,84.6,44.9,29.81,West,270,1.0,5.0,25,0.00,,,0.00,WeatherCatV1.15B25,2013-08-04 01:45:00,
2013-08-03 18:50:00,84.6,44.9,29.81,West,270,1.0,5.0,25,0.00,,,0.00,WeatherCatV1.15B25,2013-08-04 01:50:00,
2013-08-03 18:55:00,84.6,44.9,29.81,West,270,1.0,5.0,25,0.00,,,0.00,WeatherCatV1.15B25,2013-08-04 01:55:00,
2013-08-03 19:00:00,84.6,44.9,29.81,West,270,1.0,5.0,25,0.00,,,0.00,WeatherCatV1.15B25,2013-08-04 02:00:00,
2013-08-03 19:05:00,84.6,44.9,29.81,West,270,1.0,5.0,25,0.00,,,0.00,WeatherCatV1.15B25,2013-08-04 02:05:00,
2013-08-03 19:10:00,84.6,44.9,29.81,West,270,1.0,5.0,25,0.00,,,0.00,WeatherCatV1.15B25,2013-08-04 02:10:00,
2013-08-03 19:15:00,84.6,44.9,29.81,West,270,1.0,5.0,25,0.00,,,0.00,WeatherCatV1.15B25,2013-08-04 02:15:00,
2013-08-03 19:20:00,84.6,44.9,29.81,West,270,1.0,5.0,25,0.00,,,0.00,WeatherCatV1.15B25,2013-08-04 02:20:00,
2013-08-03 19:25:00,84.6,44.9,29.81,West,270,1.0,5.0,25,0.00,,,0.00,WeatherCatV1.15B25,2013-08-04 02:25:00,
2013-08-03 19:30:00,84.6,44.9,29.81,West,270,1.0,5.0,25,0.00,,,0.00,WeatherCatV1.15B25,2013-08-04 02:30:00,
2013-08-03 19:35:00,84.6,44.9,29.81,West,270,1.0,5.0,25,0.00,,,0.00,WeatherCatV1.15B25,2013-08-04 02:35:00,
2013-08-03 19:40:00,82.7,46.3,29.81,West,270,1.0,4.0,28,0.00,,,0.00,WeatherCatV1.15B25,2013-08-04 02:40:00,
2013-08-03 19:45:00,82.7,46.3,29.81,West,270,1.0,4.0,28,0.00,,,0.00,WeatherCatV1.15B25,2013-08-04 02:45:00,
2013-08-03 19:50:00,82.7,46.3,29.81,West,270,1.0,4.0,28,0.00,,,0.00,WeatherCatV1.15B25,2013-08-04 02:50:00,
2013-08-03 19:55:00,82.7,46.3,29.81,West,270,1.0,4.0,28,0.00,,,0.00,WeatherCatV1.15B25,2013-08-04 02:55:00,
2013-08-03 20:00:00,82.7,46.3,29.81,West,270,1.0,4.0,28,0.00,,,0.00,WeatherCatV1.15B25,2013-08-04 03:00:00,
2013-08-03 20:05:00,82.7,46.3,29.81,West,270,1.0,4.0,28,0.00,,,0.00,WeatherCatV1.15B25,2013-08-04 03:05:00,
2013-08-03 20:10:00,82.7,46.3,29.81,West,270,1.0,4.0,28,0.00,,,0.00,WeatherCatV1.15B25,2013-08-04 03:10:00,
2013-08-03 20:15:00,82.7,46.3,29.81,West,270,1.0,4.0,28,0.00,,,0.00,WeatherCatV1.15B25,2013-08-04 03:15:00,
2013-08-03 20:20:00,82.7,46.3,29.81,West,270,1.0,4.0,28,0.00,,,0.00,WeatherCatV1.15B25,2013-08-04 03:20:00,
2013-08-03 20:25:00,82.7,46.3,29.81,West,270,1.0,4.0,28,0.00,,,0.00,WeatherCatV1.15B25,2013-08-04 03:25:00,
2013-08-03 20:30:00,82.7,46.3,29.81,West,270,1.0,4.0,28,0.00,,,0.00,WeatherCatV1.15B25,2013-08-04 03:30:00,
2013-08-03 20:35:00,82.7,46.3,29.81,West,270,1.0,4.0,28,0.00,,,0.00,WeatherCatV1.15B25,2013-08-04 03:35:00,
2013-08-03 20:40:00,78.9,49.7,29.82,WSW,248,0.0,2.0,36,0.00,,,0.00,WeatherCatV1.15B25,2013-08-04 03:40:00,
2013-08-03 20:45:00,78.9,49.7,29.82,WSW,248,0.0,2.0,36,0.00,,,0.00,WeatherCatV1.15B25,2013-08-04 03:45:00,
2013-08-03 20:50:00,78.9,49.7,29.82,WSW,248,0.0,2.0,36,0.00,,,0.00,WeatherCatV1.15B25,2013-08-04 03:50:00,
2013-08-03 20:55:00,78.9,49.7,29.82,WSW,248,0.0,2.0,36,0.00,,,0.00,WeatherCatV1.15B25,2013-08-04 03:55:00,
2013-08-03 21:00:00,78.9,49.7,29.82,WSW,248,0.0,2.0,36,0.00,,,0.00,WeatherCatV1.15B25,2013-08-04 04:00:00,
2013-08-03 21:05:00,78.9,49.7,29.82,WSW,248,0.0,2.0,36,0.00,,,0.00,WeatherCatV1.15B25,2013-08-04 04:05:00,
2013-08-03 21:10:00,78.9,49.7,29.82,WSW,248,0.0,2.0,36,0.00,,,0.00,WeatherCatV1.15B25,2013-08-04 04:10:00,
2013-08-03 21:15:00,78.9,49.7,29.82,WSW,248,0.0,2.0,36,0.00,,,0.00,WeatherCatV1.15B25,2013-08-04 04:15:00,
2013-08-03 21:20:00,78.9,49.7,29.82,WSW,248,0.0,2.0,36,0.00,,,0.00,WeatherCatV1.15B25,2013-08-04 04:20:00,
2013-08-03 21:25:00,78.9,49.7,29.82,WSW,248,0.0,2.0,36,0.00,,,0.00,WeatherCatV1.15B25,2013-08-04 04:25:00,
2013-08-03 21:30:00,78.9,49.7,29.82,WSW,248,0.0,2.0,36,0.00,,,0.00,WeatherCatV1.15B25,2013-08-04 04:30:00,
2013-08-03 21:35:00,78.9,49.7,29.82,WSW,248,0.0,2.0,36,0.00,,,0.00,WeatherCatV1.15B25,2013-08-04 04:35:00,
2013-08-03 21:40:00,72.4,51.0,29.82,WSW,248,0.0,1.0,47,0.00,,,0.00,WeatherCatV1.15B25,2013-08-04 04:40:00,
2013-08-03 21:45:00,72.4,51.0,29.82,WSW,248,0.0,1.0,47,0.00,,,0.00,WeatherCatV1.15B25,2013-08-04 04:45:00,
2013-08-03 21:50:00,72.4,51.0,29.82,WSW,248,0.0,1.0,47,0.00,,,0.00,WeatherCatV1.15B25,2013-08-04 04:50:00,
2013-08-03 21:55:00,72.4,51.0,29.82,WSW,248,0.0,1.0,47,0.00,,,0.00,WeatherCatV1.15B25,2013-08-04 04:55:00,
2013-08-03 22:00:00,72.4,51.0,29.82,WSW,248,0.0,1.0,47,0.00,,,0.00,WeatherCatV1.15B25,2013-08-04 05:00:00,
2013-08-03 22:05:00,72.4,51.0,29.82,WSW,248,0.0,1.0,47,0.00,,,0.00,WeatherCatV1.15B25,2013-08-04 05:05:00,
2013-08-03 22:10:00,72.4,51.0,29.82,WSW,248,0.0,1.0,47,0.00,,,0.00,WeatherCatV1.15B25,2013-08-04 05:10:00,
2013-08-03 22:15:00,72.4,51.0,29.82,WSW,248,0.0,1.0,47,0.00,,,0.00,WeatherCatV1.15B25,2013-08-04 05:15:00,
2013-08-03 22:20:00,72.4,51.0,29.82,WSW,248,0.0,1.0,47,0.00,,,0.00,WeatherCatV1.15B25,2013-08-04 05:20:00,
2013-08-03 22:25:00,72.4,51.0,29.82,WSW,248,0.0,1.0,47,0.00,,,0.00,WeatherCatV1.15B25,2013-08-04 05:25:00,
2013-08-03 22:30:00,72.4,51.0,29.82,WSW,248,0.0,1.0,47,0.00,,,0.00,WeatherCatV1.15B25,2013-08-04 05:30:00,
2013-08-03 22:35:00,72.4,51.0,29.82,WSW,248,0.0,1.0,47,0.00,,,0.00,WeatherCatV1.15B25,2013-08-04 05:35:00,
2013-08-03 22:40:00,68.8,50.5,29.84,WSW,248,0.0,0.0,52,0.00,,,0.00,WeatherCatV1.15B25,2013-08-04 05:40:00,
2013-08-03 22:45:00,68.8,50.5,29.84,WSW,248,0.0,0.0,52,0.00,,,0.00,WeatherCatV1.15B25,2013-08-04 05:45:00,
2013-08-03 22:50:00,68.8,50.5,29.84,WSW,248,0.0,0.0,52,0.00,,,0.00,WeatherCatV1.15B25,2013-08-04 05:50:00,
2013-08-03 22:55:00,68.8,50.5,29.84,WSW,248,0.0,0.0,52,0.00,,,0.00,WeatherCatV1.15B25,2013-08-04 05:55:00,
2013-08-03 23:00:00,68.8,50.5,29.84,WSW,248,0.0,0.0,52,0.00,,,0.00,WeatherCatV1.15B25,2013-08-04 06:00:00,
2013-08-03 23:05:00,68.8,50.5,29.84,WSW,248,0.0,0.0,52,0.00,,,0.00,WeatherCatV1.15B25,2013-08-04 06:05:00,
2013-08-03 23:10:00,68.8,50.5,29.84,WSW,248,0.0,0.0,52,0.00,,,0.00,WeatherCatV1.15B25,2013-08-04 06:10:00,
2013-08-03 23:15:00,68.8,50.5,29.84,WSW,248,0.0,0.0,52,0.00,,,0.00,WeatherCatV1.15B25,2013-08-04 06:15:00,
2013-08-03 23:20:00,68.8,50.5,29.84,WSW,248,0.0,0.0,52,0.00,,,0.00,WeatherCatV1.15B25,2013-08-04 06:20:00,
2013-08-03 23:25:00,68.8,50.5,29.84,WSW,248,0.0,0.0,52,0.00,,,0.00,WeatherCatV1.15B25,2013-08-04 06:25:00,
2013-08-03 23:30:00,68.8,50.5,29.84,WSW,248,0.0,0.0,52,0.00,,,0.00,WeatherCatV1.15B25,2013-08-04 06:30:00,
2013-08-03 23:35:00,68.8,50.5,29.84,WSW,248,0.0,0.0,52,0.00,,,0.00,WeatherCatV1.15B25,2013-08-04 06:35:00,
2013-08-03 23:40:00,66.1,49.5,29.85,WSW,248,0.0,1.0,55,0.00,,,0.00,WeatherCatV1.15B25,2013-08-04 06:40:00,
2013-08-03 23:45:00,66.1,49.5,29.85,WSW,248,0.0,1.0,55,0.00,,,0.00,WeatherCatV1.15B25,2013-08-04 06:45:00,
2013-08-03 23:50:00,66.1,49.5,29.85,WSW,248,0.0,1.0,55,0.00,,,0.00,WeatherCatV1.15B25,2013-08-04 06:50:00,
2013-08-03 23:55:00,66.1,49.5,29.85,WSW,248,0.0,1.0,55,0.00,,,0.00,WeatherCatV1.15B25,2013-08-04 06:55:00,